This is the latest recevied weather packets stored in our database for station/object F4GSP-4. If no packets are shown the sender has not sent any weather packets the latest 10 day(s).
| Time | Temp. | Humidity | Pressure | Rain* | Wind** | Luminosity | Snow |
|---|---|---|---|---|---|---|---|
| 1777816328 | 18.33° C | 38% | 1028.2 hPa | - | - | - | - |
| 1777815428 | 18.89° C | 38% | 1028.3 hPa | - | - | - | - |
| 1777814528 | 18.33° C | 39% | 1028.4 hPa | - | - | - | - |
| 1777813627 | 17.78° C | 38% | 1028.5 hPa | - | - | - | - |
| 1777812727 | 17.22° C | 38% | 1028.6 hPa | - | - | - | - |
| 1777811827 | 18.33° C | 39% | 1028.5 hPa | - | - | - | - |
| 1777810927 | 18.33° C | 39% | 1028.6 hPa | - | - | - | - |
| 1777810027 | 18.89° C | 39% | 1028.7 hPa | - | - | - | - |
| 1777809126 | 18.89° C | 39% | 1028.6 hPa | - | - | - | - |
| 1777808226 | 18.33° C | 39% | 1028.5 hPa | - | - | - | - |
| 1777807326 | 18.89° C | 39% | 1028.6 hPa | - | - | - | - |
| 1777806426 | 19.44° C | 40% | 1028.6 hPa | - | - | - | - |
| 1777805526 | 19.44° C | 40% | 1028.6 hPa | - | - | - | - |
| 1777804626 | 18.89° C | 40% | 1028.7 hPa | - | - | - | - |
| 1777803726 | 20° C | 40% | 1028.6 hPa | - | - | - | - |
| 1777802825 | 19.44° C | 41% | 1028.6 hPa | - | - | - | - |
| 1777801925 | 18.89° C | 41% | 1028.6 hPa | - | - | - | - |
| 1777801025 | 19.44° C | 41% | 1028.7 hPa | - | - | - | - |
| 1777800125 | 21.11° C | 42% | 1028.7 hPa | - | - | - | - |
| 1777799225 | 21.11° C | 43% | 1028.6 hPa | - | - | - | - |
| 1777798325 | 19.44° C | 43% | 1028.5 hPa | - | - | - | - |
| 1777797424 | 18.89° C | 44% | 1028.6 hPa | - | - | - | - |
| 1777796528 | 17.22° C | 44% | 1029 hPa | - | - | - | - |
| 1777795624 | 16.67° C | 44% | 1029.1 hPa | - | - | - | - |
| 1777794724 | 15.56° C | 44% | 1029.2 hPa | - | - | - | - |
* Rain since midnight (hover to see other rain measurements)
** Current wind speed in m/s (hover to see current wind gust speed)